Regional Weather Roundup
Issued by NWS

Home | Current Version | Previous Version | Text Only | Print | Product List | Glossary Off
Versions: 1 2 3 4 5 6 7 8 9 10 11 12 13 14 15 16 17 18 19 20 21 22 23 24 25 26 27 28 29 30 31 32 33 34 35 36 37 38 39 40 41 42 43 44 45 46 47 48 49 50

000
ASUS43 KMPX 131601
RWRMN
WEATHER ROUNDUP FOR MINNESOTA
NATIONAL WEATHER SERVICE TWIN CITIES/CHANHASSEN MN
1000 AM CST SAT FEB 13 2016


NOTE: "FAIR" INDICATES FEW OR NO CLOUDS BELOW 12,000 FEET WITH NO
SIGNIFICANT WEATHER AND/OR OBSTRUCTIONS TO VISIBILITY. N/A MEANS
CURRENT SKY AND/OR WEATHER CONDITIONS ARE NOT AVAILABLE.

MNZ060>063-068>070-131700-
   Twin Cities Metro

CITY           SKY/WX    TMP DP  RH WIND       PRES   REMARKS
TWIN CITIES    CLOUDY    -1 -11  62 CALM      30.64S
ST PAUL        CLOUDY     0 -10  63 CALM      30.66F
CRYSTAL        CLOUDY    -1 -11  62 CALM      30.62F
BLAINE         SUNNY      0  -9  65 S3        30.62F
LAKEVILLE      CLOUDY    -2 -11  65 CALM      30.62F
EDEN PRAIRIE   CLOUDY    -1 -10  65 CALM      30.62F
SOUTH ST PAUL  CLOUDY    -1 -13  56 CALM      30.64F
LAKE ELMO      FAIR       0 -13  55 CALM      30.64S
$$
MNZ001>005-007-008-013>017-022>024-027-028-131700-
   Northwest Minnesota

CITY           SKY/WX    TMP DP  RH WIND       PRES   REMARKS
BEMIDJI        CLOUDY   -11 -18  68 SE7       30.51F WCI -26
HALLOCK        SUNNY     -6 -15  65 S15       30.51F WCI -27
ROSEAU         CLOUDY   -15 -20  76 S5        30.53S WCI -27
WARROAD        CLOUDY   -15 -22  70 CALM      30.52F
THIEF RVR FALL CLOUDY    -9 -18  64 SE12      30.51F WCI -29
CROOKSTON      CLOUDY    -6 -13  71 S14       30.54F WCI -26
FOSSTON        CLOUDY    -6 -11  77 CALM      30.50F
DETROIT LAKES  CLOUDY    -6 -11  77 SE10      30.50F WCI -23
MOORHEAD       CLOUDY     0  -9  65 SE13      30.53F WCI -18
PARK RAPIDS    CLOUDY   -12 -16  82 CALM      30.51S
MAHNOMEN       FAIR     -10 -15  80 SE7       30.51F WCI -25
$$
MNZ006-009>011-018-025>026-131700-
   North Central Minnesota

CITY           SKY/WX    TMP DP  RH WIND       PRES   REMARKS
BAUDETTE       CLOUDY   -15 -22  70 E3        30.51F
FLAG ISLAND    CLOUDY   -22 -27  76 SE6       30.51F WCI -38
INTL FALLS     CLOUDY   -14 -19  79 SW3       30.53F
WASKISH        CLOUDY    -8 -15  71 CALM      30.52F
LONGVILLE      CLOUDY    -8 -17  65 SE3       30.53F
GRAND RAPIDS   CLOUDY    -9 -13  84 CALM      30.52S
CRANE LAKE     CLOUDY   -15 -20  76 CALM      30.57F
ORR            CLOUDY   -11 -22  58 CALM      30.49S
COOK           CLOUDY   -13 -20  70 CALM      30.52F
WALKER         FAIR     -12 -18  72 CALM      30.53S
$$
MNZ012-019>021-037-131700-
   Northeast Minnesota

CITY           SKY/WX    TMP DP  RH WIND       PRES   REMARKS
DULUTH         CLOUDY    -9 -18  64 W7        30.51R WCI -24
ELY            CLOUDY   -13 -18  77 CALM      30.51S
HIBBING        CLOUDY   -12 -20  67 NW3       30.52S
EVELETH        CLOUDY    -8 -18  59 CALM      30.51S
DULUTH HARBOR  CLOUDY    -8 -18  59 SW5       30.64S WCI -19
TWO HARBORS    SUNNY      0 -15  50 CALM      30.51S
SILVER BAY     SUNNY     -4 -17  54 CALM      30.50F
GRAND MARAIS     N/A     -2 -13  59 S6        30.57R WCI -14
G MARAIS ARPRT SUNNY    -11 -20  64 NW15G22   30.38S WCI -34
$$
MNZ029>031-032-039>041-046>048-054>057-064-131700-
   West Central Minnesota

CITY           SKY/WX    TMP DP  RH WIND       PRES   REMARKS
FERGUS FALLS   CLOUDY    -2 -11  65 SE13      30.56F WCI -21
WHEATON        CLOUDY     1  -6  71 SE14      30.54F WCI -17
MORRIS         CLOUDY     0  -8  71 SE14      30.52F WCI -19
ALEXANDRIA     CLOUDY    -4 -14  62 SE8       30.52F WCI -19
ELBOW LAKE     FAIR      -2 -10  71 E12       30.53F WCI -20
WADENA         CLOUDY    -8 -15  71 E7        30.52F WCI -22
GLENWOOD       CLOUDY    -4 -13  65 SE8       30.54S WCI -19
APPLETON       CLOUDY     0  -8  71 SE10      30.56F WCI -17
BENSON         CLOUDY     0  -9  65 CALM      30.56F
ORTONVILLE     CLOUDY     0  -9  65 SE14      30.53F WCI -19
MADISON        CLOUDY     1  -8  66 SE12      30.55F WCI -15
WILLMAR        FAIR       1  -8  66 SE9       30.58S WCI -14
$$
MNZ033>034-036-042>043-049>051-058-059-131700-
   Central Minnesota

CITY           SKY/WX    TMP DP  RH WIND       PRES   REMARKS
ST CLOUD       CLOUDY    -6 -13  71 CALM      30.60F
SAUK CENTRE    FAIR      -7 -14  69 E5        30.56S WCI -18
PAYNESVILLE    CLOUDY    -3 -11  66 SE6       30.57S WCI -15
AITKIN         CLOUDY    -8 -20  54 CALM      30.55S
PINE RIVER       N/A    -11 -18  70 CALM      30.56S
BRAINERD       CLOUDY    -8 -16  67 CALM      30.57S
STAPLES        CLOUDY    -9 -17  70 S6        30.55S WCI -23
LONG PRAIRIE   FAIR      -9 -17  70 CALM      30.55F
LITTLE FALLS   CLOUDY    -8 -15  71 CALM      30.59F
LITCHFIELD     CLOUDY    -2 -11  65 SE3       30.59S
BUFFALO        CLOUDY    -2 -13  60 CALM      30.62F
MAPLE LAKE     CLOUDY    -1 -10  64 CALM      30.61F
$$
MNZ037-044-045-052-053-131700-
   East Central Minnesota

CITY           SKY/WX    TMP DP  RH WIND       PRES   REMARKS
PRINCETON      CLOUDY    -2 -13  60 CALM      30.60S
MORA           CLOUDY    -4 -13  65 CALM      30.62S
CAMBRIDGE      CLOUDY    -2 -13  60 CALM      30.60F
MOOSE LAKE     CLOUDY    -8 -20  54 CALM      30.57F
HINCKLEY       FAIR      -6 -15  65 CALM      30.61S
CLOQUET        CLOUDY    -9 -20  59 CALM      30.53F
MCGREGOR       CLOUDY    -8 -17  65 CALM      30.57S
$$
MNZ071>073-080-081-089-090-097-098-131700-
   Southwest Minnesota

CITY           SKY/WX    TMP DP  RH WIND       PRES   REMARKS
MONTEVIDEO     CLOUDY     0  -8  71 S5        30.59S WCI -10
GRANITE FALLS  CLOUDY     2  -5  72 SE9       30.59F WCI -13
CANBY          CLOUDY     5  -2  71 E10       30.54F WCI -10
MARSHALL       CLOUDY     3  -5  69 S9        30.55F WCI -12
REDWOOD FALLS  CLOUDY    -1  -9  68 S10       30.60S WCI -17
OLIVIA         CLOUDY     1  -8  66 SE9       30.59S WCI -14
PIPESTONE      CLOUDY     3  -9  55 SE10      30.46F WCI -12
WINDOM         CLOUDY     0  -8  71 SE6       30.54F WCI -12
WORTHINGTON    CLOUDY     0  -9  65 S9        30.52F WCI -16
JACKSON        CLOUDY     1  -8  66 SE7       30.54F WCI -11
TRACY          CLOUDY     2  -4  73 S8        30.54F WCI -11
SLAYTON        CLOUDY     1  -5  77 SE12      30.50F WCI -16
$$
MNZ065>067-074>077-082>085-091>093-131700-
   South Central Minnesota

CITY           SKY/WX    TMP DP  RH WIND       PRES   REMARKS
MANKATO        CLOUDY    -2  -9  71 SE5       30.61S WCI -12
NEW ULM        CLOUDY    -2 -11  65 SE5       30.60F WCI -12
ST JAMES       CLOUDY     0  -8  71 SE7       30.61R WCI -13
FAIRMONT       CLOUDY     0  -9  65 SE6       30.57F WCI -12
GLENCOE        CLOUDY     0  -9  68 SE3       30.61S
FARIBAULT      CLOUDY    -2 -11  65 CALM      30.61S
OWATONNA       CLOUDY    -2 -11  65 CALM      30.60S
WASECA         CLOUDY     0  -8  71 E3        30.62S
ALBERT LEA     CLOUDY     0 -11  60 E3        30.58F
$$
MNZ078>079-086>088-094>096-131700-
   Southeast Minnesota

CITY           SKY/WX    TMP DP  RH WIND       PRES   REMARKS
ROCHESTER      CLOUDY    -2 -11  65 CALM      30.58F
RED WING       CLOUDY     0 -15  50 NE1       30.64S
STANTON        CLOUDY    -3 -11  69 CALM      30.62F
DODGE CENTER   CLOUDY     9  -2  61 CALM      30.57S
WINONA         CLOUDY     3 -11  51 CALM      30.67S
AUSTIN         CLOUDY    -2 -11  65 CALM      30.59S
PRESTON        CLOUDY    -4 -15  58 NW3       30.59S
$$
ABBREVIATIONS USED IN REMARKS
   TC - TEMPERATURES IN CELSIUS
  WCI - WIND CHILL INDEX
   HX - HEAT INDEX
  VSB - VISIBILITY
$$



USA.gov is the U.S. government's official web portal to all federal, state and local government web resources and services.